Regional Weather Roundup
Issued by NWS Northern Indiana

Home | Current Version | Previous Version | Text Only | Print | Product List | Glossary On
Versions: 1 2 3 4 5 6 7 8 9 10 11 12 13 14 15 16 17 18 19 20 21 22 23 24 25 26 27 28 29 30 31 32 33 34 35 36 37 38 39 40 41 42 43 44 45 46 47 48 49 50
000
ASUS43 KIWX 300500
RWRIWX

KIWX WEATHER ROUNDUP
NATIONAL WEATHER SERVICE NORTHERN INDIANA
100 AM EDT SAT MAY 30 2015

NOTE: "FAIR" INDICATES FEW OR NO CLOUDS BELOW 12,000 FEET WITH NO
SIGNIFICANT WEATHER AND/OR OBSTRUCTIONS TO VISIBILITY.

* THESE STATIONS ARE NOT UNDER NWS QUALITY CONTROL. THEY ALSO MAY NOT
  REPORT WEATHER SUCH AS PRECIPITATION OR FOG.

INZ001>027-300600-
NORTHERN INDIANA

CITY           SKY/WX    TMP DP  RH WIND       PRES   REMARKS
SOUTH BEND     CLOUDY    71  67  87 S7        29.97S
GOSHEN         MOCLDY    74  64  71 SW8       29.98S
MONTICELLO*    CLOUDY    72  68  88 S6        29.99S
ANGOLA*        CLEAR     73  66  78 SW9       29.99S
FORT WAYNE     PTCLDY    71  64  78 S9        30.01S
PERU/GRISSOM   PTCLDY    73  65  78 S12       29.99F

$$
INZ028>050-300600-
CENTRAL INDIANA

CITY           SKY/WX    TMP DP  RH WIND       PRES   REMARKS
LAFAYETTE      MOCLDY    73  65  75 S5        29.99S
KOKOMO*        PTCLDY    73  64  73 S13       30.01F
MUNCIE*        CLEAR     72  64  76 S8        30.03F
INDIANAPOLIS   PTCLDY    72  64  76 S10       30.01F

$$
MIZ043>046-050>051-056>058-064>065-071>073-077>080-300600-
SOUTHWEST LOWER MICHIGAN

CITY           SKY/WX    TMP DP  RH WIND       PRES   REMARKS
BATTLE CREEK   LGT RAIN  70  67  90 SW8       29.97F
BENTON HARBOR  CLOUDY    69  66  90 S6        29.95R
COLDWATER*     PTCLDY    74  62  66 S7        29.98S
HILLSDALE*     PTCLDY    74  64  70 S6        30.00S
HOLLAND        MOCLDY    71  64  78 SW14      29.94S
GRAND RAPIDS   PTCLDY    69  66  90 SW8       29.94R
KALAMAZOO      CLOUDY    70  66  87 SW6       29.96F
STURGIS*       MOCLDY    72  63  73 SW6       29.97S
THREE RIVERS*  FAIR      70  65  85 SW5       29.97S

$$
OHZ001>008-015>018-024>025-300600-
NORTHWEST OHIO

CITY           SKY/WX    TMP DP  RH WIND       PRES   REMARKS
DEFIANCE       CLEAR     74  63  68 S8        30.00F
FINDLAY        PTCLDY    73  65  75 S10       30.03S
TOLEDO EXPRESS CLEAR     73  64  73 S8        30.00S
TOLEDO METCALF CLEAR     74  63  68 S12       30.01S
LIMA           PTCLDY    72  63  73 S8        30.04S

$$
AND FOR LAKE MICHIGAN COASTAL AND OPEN LAKE BUOY OBSERVATIONS

STATION/POSITION TEMP    WIND        PRES    VSBY  WAVE
                 AIR SEA DIR/SP/G                  HT/PER
                 (F)     (DEG/KT/KT) (MB)    (MI)  (FT/S)
CALUMET HARBOR    72     210/  8/ 11   N/A
MICHIGAN CITY     73     170/ 11/ 13   N/A
BURNS HARBOR      70     200/ 10/ 17 1014.9S
SAINT JOSEPH      71     170/  7/ 14 1014.9S
SOUTH LAKE BUOY   48 38  210/  8/ 10 1013.4F         0
4 MI NW BRIDGMAN  64 58  230/ 10/ 12   N/A           1/ 3
MICHIGAN CITY     65 56  210/  8/ 10   N/A           1/ 2

$$
&&


USA.gov is the U.S. government's official web portal to all federal, state and local government web resources and services.